Location: Taunton
(51.0167°N, 3.1000°W)
Time: 14:54:27
(UTC+00:00)

Tiangong 1 - Visible Passes

Search period start: 18 December 2017 00:00
Search period end: 28 December 2017 00:00
Orbit: 274 x 300 km, 42.8° (Epoch: 18 December)

Date Brightness Start Highest point End Pass type
(mag) Time Alt. Az. Time Alt. Az. Time Alt. Az.
23 Dec 3.5 06:24:22 10° S 06:25:16 11° S 06:26:10 10° SSE visible
24 Dec 3.3 06:26:56 10° SSW 06:28:10 13° S 06:29:25 10° SE visible
25 Dec 3.2 06:29:53 11° SSW 06:30:57 13° S 06:32:16 10° SSE visible
26 Dec 3.2 06:32:38 11° SSW 06:33:36 12° S 06:34:45 10° SSE visible
27 Dec 3.3 06:35:29 10° SSW 06:36:06 11° SSW 06:36:42 10° S visible
